sat.trackr.live / text

‹ back to catalog

STARLINK-33587

NORAD 63469 · 2025-070K

PAYLOAD ACTIVE UNKNOWN

§ Identity

Operator
Country
US
Launch date
2025-04-06
Launch site
AFETR
Launch vehicle
Mass (kg)
RCS (m²)

Purposes: comms

External: N2YO · Heavens-Above · Gunter

§ Orbital elements

Epoch: 2026-05-25T03:54:13.925952Z

Period
94.27 min
Inclination
42.9995°
Eccentricity
0.0001485
Mean motion
15.27581486 rev/d
Perigee alt
482.0 km
Apogee alt
484.1 km
Semi-major
6,861.2 km
B*
5.1980e-4
RAAN
187.7770°
Arg perigee
347.6248°
Mean anomaly
12.4567°
Rev number
6,467

§ Raw data

STARLINK-335871 63469U 25070K   26145.16266118  .00014070  00000+0  51980-3 0  99982 63469  42.9995 187.7770 0001485 347.6248  12.4567 15.27581486 64672

JSON: /api/v1/satellites/63469 · /tle

For live sub-satellite position, see the globe view (requires WebGL).

§ Visibility from observer

Set your observer location to see the next 7 days of passes ≥ 10°. The values pass through the URL so the page stays shareable.

No JS? Fill the form by hand. The geolocation button needs JavaScript.